• Join FlightAware (Why Join?)
  • Login
  • US Flag 
01:01AM EDT


 

Airport Tracker/Info


-or-


 

Live Flight TrackerFlight Track Log ✈ N700CS ✈ 30-Jul-2014 ✈ KMKE - KADS

Flight Track Log - Related Links

Times and Time Zones

All times are in EDT time to prevent confusion due to time zone crossing. See the N700CS flight status page for this flight to view local times or setup timezone preferences in your user account.

Time Position Orientation Groundspeed Altitude Reporting Facility
EDT Latitude Longitude Course Direction KTS MPH feet Rate Location/Type
03:35PM 42.9500 -87.8833 145° Southeast 126 145 1,100  Level KMKE
03:36PM 42.9228 -87.8569 145° Southeast 135 155 2,000 1,260 Climbing Chicago Center
03:37PM 42.8917 -87.8194 139° Southeast 145 167 3,500 1,380 Climbing Chicago Center
03:38PM 42.8461 -87.8117 173° South 166 191 5,000 1,680 Climbing Chicago Center
03:39PM 42.7917 -87.8017 172° South 163 188 7,100 1,740 Climbing Chicago Center
03:40PM 42.7461 -87.7919 171° South 166 191 8,600 1,440 Climbing Chicago Center
03:41PM 42.6983 -87.7822 171° South 173 199 10,100 1,500 Climbing Chicago Center
03:42PM 42.6494 -87.7719 171° South 176 203 11,700 1,440 Climbing Chicago Center
03:43PM 42.5986 -87.7606 171° South 183 211 13,100 1,380 Climbing Chicago Center
03:44PM 42.5467 -87.7522 173° South 185 213 14,600 1,380 Climbing Chicago Center
03:45PM 42.4872 -87.7375 170° South 192 221 16,000 1,320 Climbing Chicago Center
03:46PM 42.4333 -87.7286 173° South 195 224 17,400 960 Climbing Chicago Center
03:47PM 42.3753 -87.7461 193° South 225 259 18,000 840 Climbing Chicago Center
03:48PM 42.2989 -87.7656 191° South 235 270 19,200 1,080 Climbing Chicago Center
03:49PM 42.2336 -87.7811 190° South 237 273 20,300 900 Climbing Chicago Center
03:51PM 42.1667 -87.7972 190° South 243 280 21,100 780 Climbing Chicago Center
03:52PM 42.0978 -87.8133 190° South 248 285 22,000 780 Climbing Chicago Center
03:53PM 42.0283 -87.8297 190° South 251 289 22,800 720 Climbing Chicago Center
03:54PM 41.9581 -87.8464 190° South 254 292 23,600 780 Climbing Chicago Center
03:55PM 41.8706 -87.8669 190° South 264 304 24,500 720 Climbing Chicago Center
03:56PM 41.7967 -87.8844 190° South 266 306 25,100 540 Climbing Chicago Center
03:57PM 41.7225 -87.9019 190° South 268 308 25,700 540 Climbing Chicago Center
03:58PM 41.6478 -87.9194 190° South 270 311 26,300 480 Climbing Chicago Center
03:59PM 41.5725 -87.9369 190° South 273 314 26,800 480 Climbing Chicago Center
04:00PM 41.4953 -87.9550 190° South 275 316 27,400 480 Climbing Chicago Center
04:01PM 41.4175 -87.9733 190° South 277 319 27,900 240 Climbing Chicago Center
04:02PM 41.3361 -87.9922 190° South 289 333 28,000  Climbing Chicago Center
04:03PM 41.2364 -88.0150 190° South 299 344 28,000  Level Chicago Center
04:04PM 41.1522 -88.0344 190° South 303 349 28,000  Level Chicago Center
04:05PM 41.0678 -88.0539 190° South 305 351 28,000  Level Chicago Center
04:06PM 41.0069 -88.1192 219° Southwest 281 323 28,000  Level Chicago Center
04:07PM 40.9483 -88.1903 223° Southwest 283 326 28,000  Level Chicago Center
04:08PM 40.8903 -88.2608 223° Southwest 284 327 28,000  Level Chicago Center
04:09PM 40.8211 -88.3447 223° Southwest 283 326 28,000  Level Chicago Center
04:10PM 40.7633 -88.4144 222° Southwest 282 325 28,000  Level Chicago Center
04:11PM 40.7056 -88.4842 222° Southwest 282 325 28,000  Level Chicago Center
04:12PM 40.6467 -88.5553 223° Southwest 282 325 28,000  Level Chicago Center
04:13PM 40.5894 -88.6239 222° Southwest 283 326 28,000  Level Chicago Center
04:14PM 40.5311 -88.6939 222° Southwest 283 326 28,000  Level Chicago Center
04:15PM 40.4644 -88.7736 222° Southwest 283 326 28,000  Level Chicago Center
04:16PM 40.4061 -88.8433 222° Southwest 284 327 28,000  Level Chicago Center
04:17PM 40.3472 -88.9131 222° Southwest 284 327 28,000  Level Chicago Center
04:18PM 40.2883 -88.9831 222° Southwest 284 327 28,000  Level Chicago Center
04:20PM 40.2292 -89.0531 222° Southwest 284 327 28,000  Level Chicago Center
04:21PM 40.1583 -89.1367 222° Southwest 285 328 28,000  Level Chicago Center
04:21PM 40.1228 -89.1786 222° Southwest 285 328 28,000  Level Kansas City Center
04:22PM 40.0631 -89.2486 222° Southwest 286 329 28,000  Level Kansas City Center
04:24PM 39.9442 -89.3878 222° Southwest 286 329 28,000  Level Kansas City Center
04:25PM 39.8850 -89.4569 222° Southwest 286 329 28,000  Level Kansas City Center
04:26PM 39.8136 -89.5400 222° Southwest 286 329 28,000  Level Kansas City Center
04:27PM 39.7544 -89.6086 222° Southwest 285 328 28,000  Level Kansas City Center
04:28PM 39.6917 -89.6817 222° Southwest 284 327 28,000  Level Kansas City Center
04:29PM 39.6336 -89.7483 221° Southwest 282 325 28,000  Level Kansas City Center
04:31PM 39.5764 -89.8139 221° Southwest 278 320 28,000  Level Kansas City Center
04:32PM 39.5197 -89.8794 222° Southwest 277 319 28,000  Level Kansas City Center
04:33PM 39.4633 -89.9439 221° Southwest 275 316 28,000  Level Kansas City Center
04:34PM 39.4069 -90.0083 221° Southwest 273 314 28,000  Level Kansas City Center
04:35PM 39.3392 -90.0856 221° Southwest 272 313 28,000  Level Kansas City Center
04:36PM 39.2831 -90.1497 222° Southwest 272 313 28,000  Level Kansas City Center
04:37PM 39.2275 -90.2128 221° Southwest 270 311 28,000  Level Kansas City Center
04:38PM 39.1750 -90.2725 221° Southwest 265 305 28,000  Level Kansas City Center
04:39PM 39.1194 -90.3353 221° Southwest 259 298 28,000  Level Kansas City Center
04:40PM 39.0564 -90.4064 221° Southwest 256 295 28,000  Level Kansas City Center
04:41PM 39.0039 -90.4653 221° Southwest 254 292 28,000  Level Kansas City Center
04:42PM 38.9517 -90.5239 221° Southwest 253 291 28,000  Level Kansas City Center
04:43PM 38.8933 -90.5894 221° Southwest 252 290 28,000  Level Kansas City Center
04:44PM 38.8411 -90.6481 221° Southwest 251 289 28,000  Level Kansas City Center
04:45PM 38.7858 -90.7094 221° Southwest 250 288 28,000  Level Kansas City Center
04:46PM 38.7339 -90.7675 221° Southwest 250 288 28,000  Level Kansas City Center
04:47PM 38.6819 -90.8253 221° Southwest 250 288 28,000  Level Kansas City Center
04:48PM 38.6297 -90.8833 221° Southwest 250 288 28,000  Level Kansas City Center
04:49PM 38.5772 -90.9411 221° Southwest 250 288 28,000  Level Kansas City Center
04:50PM 38.5136 -91.0114 221° Southwest 251 289 28,000  Level Kansas City Center
04:51PM 38.4606 -91.0700 221° Southwest 252 290 28,000  Level Kansas City Center
04:52PM 38.4072 -91.1289 221° Southwest 253 291 28,000  Level Kansas City Center
04:53PM 38.3536 -91.1878 221° Southwest 254 292 28,000  Level Kansas City Center
04:54PM 38.2994 -91.2469 221° Southwest 255 293 28,000  Level Kansas City Center
04:55PM 38.2453 -91.3058 220° Southwest 256 295 28,000  Level Kansas City Center
04:56PM 38.1806 -91.3767 221° Southwest 256 295 28,000  Level Kansas City Center
04:57PM 38.1269 -91.4350 221° Southwest 256 295 28,000  Level Kansas City Center
04:59PM 38.0719 -91.4947 221° Southwest 258 297 28,000  Level Kansas City Center
05:00PM 38.0164 -91.5550 221° Southwest 259 298 28,000  Level Kansas City Center
05:01PM 37.9608 -91.6150 220° Southwest 260 299 28,000  Level Kansas City Center
05:02PM 37.8947 -91.6861 220° Southwest 259 298 28,000  Level Kansas City Center
05:03PM 37.8403 -91.7450 221° Southwest 257 296 28,000  Level Kansas City Center
05:04PM 37.7853 -91.8042 220° Southwest 257 296 28,000  Level Kansas City Center
05:05PM 37.7297 -91.8639 220° Southwest 258 297 28,000  Level Kansas City Center
05:06PM 37.6742 -91.9233 220° Southwest 259 298 28,000  Level Kansas City Center
05:07PM 37.6181 -91.9831 220° Southwest 260 299 28,000  Level Kansas City Center
05:08PM 37.5619 -92.0428 220° Southwest 261 300 28,000  Level Kansas City Center
05:09PM 37.4942 -92.1150 220° Southwest 263 303 28,000  Level Kansas City Center
05:10PM 37.4378 -92.1750 220° Southwest 263 303 28,000  Level Kansas City Center
05:11PM 37.3819 -92.2342 220° Southwest 262 302 28,000  Level Kansas City Center
05:12PM 37.3258 -92.2933 220° Southwest 262 302 28,000  Level Kansas City Center
05:13PM 37.2697 -92.3528 220° Southwest 262 302 28,000  Level Kansas City Center
05:14PM 37.2136 -92.4117 220° Southwest 262 302 28,000  Level Kansas City Center
05:15PM 37.1572 -92.4711 220° Southwest 263 303 28,000  Level Kansas City Center
05:16PM 37.0892 -92.5422 220° Southwest 263 303 28,000  Level Kansas City Center
05:17PM 37.0328 -92.6011 220° Southwest 264 304 28,000  Level Kansas City Center
05:18PM 36.9764 -92.6603 220° Southwest 264 304 28,000  Level Kansas City Center
05:19PM 36.9200 -92.7189 220° Southwest 263 303 28,000  Level Kansas City Center
05:20PM 36.8633 -92.7778 220° Southwest 264 304 28,000  Level Kansas City Center
05:21PM 36.8069 -92.8364 220° Southwest 263 303 28,000  Level Kansas City Center
05:22PM 36.7506 -92.8947 220° Southwest 263 303 28,000  Level Kansas City Center
05:23PM 36.6828 -92.9647 220° Southwest 263 303 28,000  Level Kansas City Center
05:24PM 36.6261 -93.0231 220° Southwest 263 303 28,000  Level Kansas City Center
05:25PM 36.5933 -93.0569 220° Southwest 263 303 28,000  Level Memphis Center
05:26PM 36.5253 -93.1269 220° Southwest 264 304 28,000  Level Memphis Center
05:27PM 36.4689 -93.1847 219° Southwest 263 303 28,000  Level Memphis Center
05:28PM 36.4164 -93.2383 219° Southwest 263 303 28,000  Level Memphis Center
05:29PM 36.3614 -93.2956 220° Southwest 261 300 28,000  Level Memphis Center
05:30PM 36.2961 -93.3628 220° Southwest 258 297 28,000  Level Memphis Center
05:31PM 36.2406 -93.4197 220° Southwest 256 295 28,000  Level Memphis Center
05:32PM 36.1883 -93.4733 220° Southwest 254 292 28,000  Level Memphis Center
05:33PM 36.1347 -93.5283 220° Southwest 253 291 28,000  Level Memphis Center
05:34PM 36.0811 -93.5831 220° Southwest 252 290 28,000  Level Memphis Center
05:35PM 36.0275 -93.6378 220° Southwest 251 289 28,000  Level Memphis Center
05:36PM 35.9631 -93.7036 220° Southwest 251 289 28,000  Level Memphis Center
05:37PM 35.9092 -93.7581 219° Southwest 251 289 28,000  Level Memphis Center
05:39PM 35.8558 -93.8125 220° Southwest 251 289 28,000  Level Memphis Center
05:40PM 35.8028 -93.8661 219° Southwest 250 288 28,000  Level Memphis Center
05:41PM 35.7494 -93.9200 219° Southwest 249 287 28,000  Level Memphis Center
05:42PM 35.6856 -93.9847 219° Southwest 249 287 28,000  Level Memphis Center
05:43PM 35.6322 -94.0383 219° Southwest 249 287 28,000  Level Memphis Center
05:44PM 35.5789 -94.0919 219° Southwest 249 287 28,000  Level Memphis Center
05:45PM 35.5236 -94.1472 219° Southwest 249 287 28,000  Level Memphis Center
05:46PM 35.4717 -94.1994 219° Southwest 249 287 28,000  Level Memphis Center
05:47PM 35.4175 -94.2536 219° Southwest 250 288 28,000  Level Memphis Center
05:48PM 35.3536 -94.3172 219° Southwest 251 289 28,000  Level Memphis Center
05:49PM 35.2981 -94.3728 219° Southwest 252 290 28,000  Level Memphis Center
05:50PM 35.2431 -94.4275 219° Southwest 253 291 28,000  Level Memphis Center
05:51PM 35.1881 -94.4819 219° Southwest 254 292 28,000  Level Memphis Center
05:52PM 35.1331 -94.5367 219° Southwest 255 293 28,000  Level Memphis Center
05:53PM 35.0775 -94.5917 219° Southwest 255 293 28,000  Level Memphis Center
05:54PM 35.0106 -94.6578 219° Southwest 256 295 28,000  Level Memphis Center
05:55PM 34.9544 -94.7128 219° Southwest 256 295 28,000  Level Memphis Center
05:56PM 34.8986 -94.7678 219° Southwest 257 296 28,000  Level Memphis Center
05:57PM 34.8567 -94.8358 233° Southwest 251 289 28,000 -60 Level Memphis Center
05:58PM 34.8178 -94.9069 236° Southwest 251 289 27,900 -420 Descending Memphis Center
05:59PM 34.7769 -94.9822 237° Southwest 267 307 27,200 -780 Descending Memphis Center
06:00PM 34.7247 -95.0778 236° Southwest 275 316 26,400 -780 Descending Memphis Center
06:01PM 34.6825 -95.1553 236° Southwest 277 319 25,600 -780 Descending Memphis Center
06:02PM 34.6392 -95.2347 236° Southwest 279 321 24,900 -720 Descending Memphis Center
06:03PM 34.5961 -95.3136 236° Southwest 280 322 24,200 -780 Descending Memphis Center
06:05PM 34.5378 -95.4219 237° Southwest 281 323 23,200 -540 Descending Fort Worth Center
06:06PM 34.4806 -95.4819 221° Southwest 282 325 23,000 -120 Descending Fort Worth Center
06:07PM 34.4069 -95.5111 198° South 281 323 23,000  Level Fort Worth Center
06:08PM 34.3372 -95.5461 203° Southwest 271 312 23,000  Level Fort Worth Center
06:09PM 34.2792 -95.6128 224° Southwest 262 302 23,000  Level Fort Worth Center
06:10PM 34.2192 -95.6639 215° Southwest 265 305 23,000 -60 Level Fort Worth Center
06:11PM 34.1581 -95.7150 215° Southwest 266 306 22,900 -840 Descending Fort Worth Center
06:12PM 34.0831 -95.7789 215° Southwest 287 330 21,300 -1,500 Descending Fort Worth Center
06:13PM 34.0200 -95.8375 218° Southwest 272 313 19,900 -1,680 Descending Fort Worth Center
06:14PM 33.9681 -95.8897 220° Southwest 242 278 17,900 -1,920 Descending Fort Worth Center
06:15PM 33.9233 -95.9486 228° Southwest 240 276 16,000 -1,380 Descending Fort Worth Center
06:16PM 33.8767 -96.0128 229° Southwest 256 295 15,100 -1,020 Descending Fort Worth Center
06:17PM 33.8186 -96.0925 229° Southwest 262 302 13,900 -1,020 Descending Fort Worth Center
06:18PM 33.7703 -96.1594 229° Southwest 264 304 13,000 -1,200 Descending Fort Worth Center
06:19PM 33.7192 -96.2294 229° Southwest 256 295 11,500 -1,260 Descending Fort Worth Center
06:20PM 33.6717 -96.2947 229° Southwest 258 297 10,400 -1,140 Descending Fort Worth Center
06:21PM 33.6211 -96.3625 228° Southwest 251 289 9,200 -1,140 Descending Fort Worth Center
06:22PM 33.5744 -96.4264 229° Southwest 252 290 8,100 -1,140 Descending Fort Worth Center
06:23PM 33.5267 -96.4922 229° Southwest 248 285 6,900 -1,020 Descending Fort Worth Center
06:24PM 33.4822 -96.5517 228° Southwest 242 278 6,000 -660 Descending Fort Worth Center
06:25PM 33.4386 -96.6033 225° Southwest 226 260 5,600 -720 Descending Fort Worth Center
06:26PM 33.3778 -96.6428 208° Southwest 231 266 4,500 -1,080 Descending Fort Worth Center
06:27PM 33.3214 -96.6800 209° Southwest 232 267 3,400 -780 Descending Fort Worth Center
06:28PM 33.2606 -96.7206 209° Southwest 232 267 3,000 -240 Descending Fort Worth Center
06:29PM 33.2086 -96.7556 209° Southwest 219 252 3,000  Level Fort Worth Center
06:31PM 33.1517 -96.7928 209° Southwest 218 251 3,000 -300 Level Fort Worth Center
06:32PM 33.0969 -96.8289 209° Southwest 222 255 2,400 -540 Descending Fort Worth Center
06:33PM 33.0392 -96.8622 206° Southwest 202 232 1,900 -540 Descending Fort Worth Center
06:34PM 33.0075 -96.8542 168° South 118 136 1,300 -540 Descending Fort Worth Center
06:35PM 32.9844 -96.8431 158° South 85 98 900 -300 Descending Fort Worth Center
06:36PM 32.9639 -96.8353 162° South 85 98 800 -120 Descending Fort Worth Center
06:38PM 32.9667 -96.8333 North  Level FlightAware Approximate